Regional Weather Roundup
Issued by NWS Upton, NY

Current Version | Previous Version | Graphics & Text | Print | Product List | Glossary Off
Versions: 1 2 3 4 5 6 7 8 9 10 11 12 13 14 15 16 17 18 19 20 21 22 23 24 25 26 27 28 29 30 31 32 33 34 35 36 37 38 39 40 41 42 43 44 45 46 47 48 49 50

000
ASUS41 KOKX 041605
RWROKX

REGIONAL WEATHER ROUNDUP
NATIONAL WEATHER SERVICE NEW YORK NY
1100 AM EST WED MAR 04 2015

NOTE: "FAIR" INDICATES FEW OR NO CLOUDS BELOW 12,000 FEET WITH NO
SIGNIFICANT WEATHER AND/OR OBSTRUCTIONS TO VISIBILITY.

NYZ071-072-176-178-NJZ106-104-041700-
NEW YORK CITY METRO AREA


CITY           SKY/WX    TMP DP  RH WIND       PRES   REMARKS
CENTRAL PARK   CLOUDY    42  35  76 W6        29.90R HAZE
LAGUARDIA APRT CLOUDY    42  36  79 SW9       29.88R
KENNEDY INTL   CLOUDY    37  33  85 SW13      29.91R FOG     WCI  29
NEWARK/LIBERTY LGT RAIN  38  35  89 SW6       29.88S FOG     WCI  33
BRNX BOT. GARD   N/A     41  36  81 SW5       29.86S
TETERBORO      CLOUDY    39  36  89 S8        29.87R FOG     WCI  33
$$

NYZ177-179-078>081-041700-
LONG ISLAND NEW YORK

CITY           SKY/WX    TMP DP  RH WIND       PRES   REMARKS
FARMINGDALE    PTSUNNY   39  36  89 SW9       29.88R FOG     WCI  33
ISLIP          NOT AVBL
SHIRLEY        NOT AVBL
WESTHAMPTON    LGT RAIN  37  34  89 SW13      29.87R FOG     WCI  29
MONTAUK POINT    N/A     40  37  89 SW6       29.84S
$$

NYZ052-065-067-041700-
HUDSON VALLEY

CITY           SKY/WX    TMP DP  RH WIND       PRES   REMARKS
WHITE PLAINS   NOT AVBL
NEWBURGH       PTSUNNY   39  36  87 W10       29.85R WCI  32
MONTGOMERY     CLOUDY    38  34  85 SW8       29.84R WCI  32
POUGHKEEPSIE   CLOUDY    40  34  79 SW9       29.85R WCI  34
ALBANY         CLOUDY    36  27  69 W7        29.85R WCI  30
$$

NJZ001-105-106-008-010-013-015-019>022-104-041700-
NEW JERSEY

CITY           SKY/WX    TMP DP  RH WIND       PRES   REMARKS
NEWARK/LIBERTY LGT RAIN  38  35  89 SW6       29.88S FOG     WCI  33
TETERBORO      CLOUDY    39  36  89 S8        29.87R FOG     WCI  33
CALDWELL       CLOUDY    41  36  82 CALM      29.87S HAZE
MORRISTOWN     CLOUDY    41  37  87 SW8       29.88R
SOMERVILLE     CLOUDY    40  37  89 CALM      29.86F FOG
SUSSEX         LGT RAIN  37  33  85 SW7       29.86R FOG     WCI  32
ANDOVER          N/A     37  35  92 S3        29.86R
TRENTON        CLOUDY    38  36  92 W5        29.89R FOG     WCI  34
MILLVILLE      CLOUDY    44  41  89 SW7       29.93S
ATLANTIC CITY  CLOUDY    44  42  93 W7        29.92S
WRIGHTSTOWN    LGT RAIN  39  39 100 W5        29.87R
TOMS RIVER     CLOUDY    43  39  87 CALM      29.89S
BELMAR         CLOUDY    39  34  81 W6        29.88S WCI  35
$$

PAZ047>061-062-071-041700-
EASTERN PENNSYLVANIA

CITY           SKY/WX    TMP DP  RH WIND       PRES   REMARKS
PHILADELPHIA   CLOUDY    39  37  92 SW8       29.91R FOG     WCI  33
ALLENTOWN      LGT RAIN  37  33  85 SW8       29.89F FOG     WCI  31
SCRANTON       CLOUDY    37  33  85 SW8       29.86F FOG     WCI  31
$$

CTZ002-004>006-009-010-012-RIZ004-006-007-MAZ004-011-015-041700-
SOUTHERN NEW ENGLAND
 IN CT

CITY           SKY/WX    TMP DP  RH WIND       PRES   REMARKS
BRADLEY INTL   CLOUDY    42  34  73 SW3       29.80S
HARTFORD       CLOUDY    40  34  79 SW8       29.82S WCI  34
DANBURY        CLOUDY    38  33  82 W10       29.86R WCI  31
WTRBRY/OXFORD  PTSUNNY   39  32  75 W7        29.82R WCI  34
BRIDGEPORT     CLOUDY    36  34  92 SW7       29.85R FOG     WCI  30
MERIDEN        CLOUDY    39  36  89 S6        29.83S FOG     WCI  35
NEW HAVEN      CLOUDY    36  33  89 SW10      29.84R FOG     WCI  28
CHESTER        FAIR      39  36  87 W5        29.82R
GROTON         NOT AVBL
WILLIMANTIC    CLOUDY    41  34  76 VRB6      29.81R

 IN RI

CITY           SKY/WX    TMP DP  RH WIND       PRES   REMARKS
PROVIDENCE     CLOUDY    40  34  79 W7        29.81R
BLOCK ISLAND   CLOUDY    37  34  87 SW13      29.82F WCI  29
WESTERLY       CLOUDY    36  34  92 W9        29.83S FOG     WCI  29

 IN MA

CITY           SKY/WX    TMP DP  RH WIND       PRES   REMARKS
BOSTON         CLOUDY    42  32  67 W14       29.77R
WORCESTER      CLOUDY    37  30  75 W15G25    29.73S WCI  28
WESTFIELD      CLOUDY    40  32  73 CALM      29.79S
PROVINCETOWN   CLOUDY    36  34  93 SW12      29.79R WCI  27
NANTUCKET      CLOUDY    37  35  92 W14       29.84R FOG     WCI  28
$$

ANZ330-335-338-340-345-350-353-355-041700-
COASTAL MARINE OBSERVATIONS


STATION/POSITION TIME  SKY/WX   TEMP    WIND        PRES    VSBY  WAVE
                                AIR SEA DIR/SP/G                  HT/PER
                 (UTC)          (F)     (DEG/KT/KT) (MB)    (MI)  (FT/S)
NY HARB ENTRANCE 1500            38 38  220/ 12/ 14 1011.5          5/ 7
4S FIRE IS       1500               32                N/A           6/ 8
20S FIRE ISLAND  1500               36              1012.3          6/ 8
23SW MTP         1500                                 N/A           7/ 8
HUDSON CANYON    NOT AVBL
EXECUTION ROCKS  NOT AVBL
WESTERN LI SOUND NOT AVBL
CENTRAL LI SOUND NOT AVBL
EASTERN LI SOUND NOT AVBL
ROBBINS REEF     1500            39     260/  9/  9 1010.9
$$


>>>>>>>>>>>>>>>>>>>>>>>>>>>> KEY <<<<<<<<<<<<<<<<<<<<<<<<<<<
>                                                          <
>     SKY/WX - SKY CONDITION/PRESENT WEATHER               <
>     TMP    - TEMPERATURE IN FAHRENHEIT                   <
>     DP     - DEWPOINT IN FAHRENHEIT                      <
>     RH     - RELATIVE HUMIDITY IN PERCENT                <
>     WIND   - DIRECTION AND SPEED IN MPH                  <
>     PRES   - MEAN SEA LEVEL PRESSURE IN INCHES OF HG     <
>     WCI    - WIND CHILL INDEX                            <
>     VSB    - VISIBILITY IN MILES                         <
>     HX     - HEAT INDEX                                  <
>     TC     - TEMPERATURE IN CELSIUS                      <
>     VRB    - VARIABLE WIND DIRECTION                     <
>                                                          <
>>>>>>>>>>>>>>>>>>>>>>>>>>>> KEY <<<<<<<<<<<<<<<<<<<<<<<<<<<





USA.gov is the U.S. government's official web portal to all federal, state and local government web resources and services.